Home   Weather   Meppen   Past weeks

Flag for Germany Past Weather in Meppen, Lower Saxony, Germany — Yesterday and Last 2 Weeks

Now
27 °F

Chilly.


Feels Like: 27 °F
Forecast: 26 / 35 °F
Wind: No wind

Location: Meppen

Current Time: Dec 3, 2016 at 11:02:21 pm

Latest Report: Dec 3, 2016 at 9:00 pm


Visibility: 0 mi

Pressure: 30.37 "Hg

Humidity: 96%

Dew Point: 26 °F

Location of MeppenLocation

Past Weather in Meppen — Graph

°F

Meppen Temperature Yesterday

Maximum temperature yesterday: 47 °F (at 5:00 am)
Minimum temperature yesterday: 30 °F (at 11:00 pm)
Average temperature yesterday: 42 °F

High & Low Weather Summary for the Past Weeks

 TemperatureHumidityPressure
High56 °F (Nov 21, 2:00 pm)97% (Nov 26, 9:00 am)30.61 "Hg (Nov 26, 9:00 am)
Low18 °F (Nov 29, 9:00 am)53% (Nov 20, 5:00 pm)29.18 "Hg (Nov 20, 2:00 pm)
Average40 °F85%30.09 "Hg
* Reported Nov 18 9:00 pm — Dec 3 9:00 pm, Meppen, Weather by CustomWeather, © 2016

Note: Actual official high and low records may vary slightly from our data, if they occured in-between our weather recording intervals... More about our weather records

Advertising

Meppen Weather History for the Previous 24 Hours

Scroll right to see more
 ConditionsComfort  
Time TempWeatherWind HumidityBarometerVisibility
9:00 pm
Sat, Dec 3
27 °FChilly.No wind96%30.37 "Hg0 mi
8:00 pm28 °FChilly.No wind96%30.36 "Hg0 mi
6:00 pm32 °FChilly.No wind96%30.34 "Hg0 mi
5:00 pm35 °FChilly.No wind92%30.33 "Hg4 mi
3:00 pm43 °FQuite cool.1 mph73%30.31 "Hg5 mi
2:00 pm44 °FQuite cool.1 mph68%30.31 "Hg6 mi
12:00 pm38 °FChilly.N/A92%30.32 "Hg5 mi
11:00 am35 °FChilly.1 mph96%30.33 "Hg4 mi
9:00 am32 °FChilly.N/A96%30.30 "Hg2 mi
8:00 am31 °FChilly.1 mph96%30.30 "Hg3 mi
6:00 am30 °FChilly.1 mph96%30.28 "Hg4 mi
5:00 am29 °FChilly.N/A96%30.28 "Hg4 mi
3:00 am29 °FChilly.1 mph96%30.28 "Hg0 mi
2:00 am30 °FChilly.No wind96%30.29 "Hg2 mi
12:00 am30 °FChilly.N/A96%30.28 "Hg0 mi
11:00 pm
Fri, Dec 2
30 °FChilly.No wind96%30.27 "Hg0 mi
Weather by CustomWeather, © 2016

See weather overviewHow to use our weather pages